Snowfall_Accumulation
0.0 0.0 0.0 0.0 0.5 0.0 1.6 0.7 3.1 1.1 4.6 4.1 2.5 1.0 0.5 0.1 0.0 0.0 0.0 0.0 0.0 0.0 0.0 0.0 0.0 0.0 0.0 0.0 0.0 0.0 0.0 0.0 0.0 0.0 0.0 0.0 0.0 0.0 0.0 0.0 0.0 0.0 0.0 0.0
0.0 0.0 0.0 0.0 0.0 0.0 1.7 1.5 2.7 1.8 4.6 1.5 1.1 0.4 0.0 0.0 0.0 0.0 0.0 0.0 0.0 0.0 0.0 0.0 0.0 0.0 0.0 0.0 0.0 0.0 0.0 0.0 0.0 0.0 0.0 0.0 0.0 0.0 0.0 0.0 0.0 0.0 0.0 0.0
0.0 0.0 0.4 0.6 0.1 0.0 1.4 2.8 2.5 5.4 3.3 0.2 0.9 0.1 0.0 0.0 0.0 0.0 0.1 0.0 0.1 0.0 0.3 0.0 0.0 0.0 0.0 0.0 0.0 0.0 0.0 0.0 0.0 0.0 0.0 0.0 0.0 0.0 0.0 0.0 0.0 0.0 0.0 0.0
1.9 1.6 1.5 2.4 1.2 0.3 2.0 2.7 2.4 2.3 1.6 0.7 0.3 0.1 0.1 0.1 0.1 0.1 0.5 0.5 0.5 0.4 0.8 1.2 1.4 0.7 0.1 0.0 0.0 0.0 0.0 0.0 0.0 0.0 0.0 0.0 0.0 0.0 0.0 0.0 0.0 0.0 0.0 0.0
2.6 0.8 2.2 4.3 5.9 4.8 3.2 2.4 1.1 0.3 0.2 0.0 0.0 0.0 0.1 0.2 0.2 0.5 1.2 0.8 1.1 1.1 0.8 1.6 2.8 2.8 1.3 1.0 0.2 0.0 0.0 0.0 0.0 0.0 0.0 0.0 0.0 0.0 0.0 0.0 0.0 0.0 0.0 0.0
3.9 4.0 6.9 6.8 2.5 1.7 1.3 1.6 0.3 0.0 0.0 0.0 0.2 0.1 0.4 0.6 0.7 0.7 1.0 1.2 1.4 1.5 2.0 1.8 2.5 3.7 4.2 5.0 4.3 3.1 3.7 0.0 0.0 0.0 0.0 0.0 0.0 0.0 0.0 0.0 0.0 0.0 0.0 0.0
2.6 4.4 4.3 2.5 2.5 1.5 0.9 1.1 0.0 0.0 0.0 0.1 0.3 0.2 0.9 0.9 1.0 1.1 1.1 1.0 1.0 1.5 2.2 3.2 3.3 4.1 4.5 6.5 6.5 8.4 8.9 10.1 9.6 6.8 3.8 2.1 3.0 0.0 2.3 0.0 0.0 0.0 0.0 0.0
3.9 4.0 2.7 0.7 1.2 0.4 0.5 0.2 0.0 0.0 0.0 0.1 0.2 0.6 0.7 0.9 1.0 0.9 0.8 0.8 0.7 0.9 1.2 2.5 2.7 3.4 4.0 4.0 5.8 5.5 7.3 7.8 7.7 8.9 9.0 9.1 8.6 8.3 7.7 7.2 6.8 6.2 4.9 3.9
2.6 2.3 1.9 0.5 0.7 0.5 0.1 0.0 0.1 0.0 0.1 0.0 0.0 0.4 0.4 0.6 0.9 1.0 0.9 0.7 0.5 0.4 0.5 1.1 2.0 2.4 3.4 4.8 4.2 4.1 4.1 4.5 6.2 6.2 6.7 7.5 7.8 7.7 6.9 6.2 5.5 5.5 5.2 5.1
0.9 1.7 0.3 0.2 0.2 0.2 0.1 0.1 0.3 0.1 0.0 0.0 0.1 0.4 0.6 0.5 0.7 0.7 0.8 0.8 0.4 0.4 0.5 0.9 1.3 1.6 2.2 2.9 3.3 3.3 3.1 3.1 3.3 3.7 4.3 4.6 5.1 6.1 6.5 6.5 6.0 5.4 4.7 4.0
0.6 0.9 0.1 0.1 0.1 0.2 0.2 0.1 0.1 0.2 0.3 0.2 0.2 0.4 0.5 0.8 0.8 0.9 0.8 0.5 0.3 0.3 0.3 0.5 0.4 0.5 0.8 0.8 0.7 0.9 0.9 1.2 1.3 1.5 1.6 1.9 2.3 2.6 2.8 3.6 3.7 3.9 4.2 4.0
0.9 0.5 0.1 0.6 0.3 0.3 0.3 0.3 0.2 0.0 0.5 0.6 0.2 0.5 0.5 1.0 1.1 1.0 0.9 0.9 0.7 0.6 0.4 0.5 0.2 0.2 0.1 0.0 0.0 0.0 0.0 0.0 0.0 0.0 0.0 0.0 0.0 0.2 0.2 0.4 0.3 0.4 0.4 0.6
0.2 0.1 0.2 0.4 0.3 0.2 0.1 0.3 0.0 0.0 0.2 0.5 0.5 0.4 0.7 0.9 0.9 0.8 0.8 0.7 0.6 0.5 0.3 0.1 0.0 0.1 0.0 0.0 0.0 0.0 0.0 0.0 0.0 0.0 0.0 0.0 0.0 0.0 0.0 0.0 0.0 0.0 0.0 0.0
0.3 0.2 0.4 0.5 0.4 0.2 0.1 0.1 0.0 0.1 0.1 0.2 0.4 0.1 0.1 0.2 0.0 0.0 0.0 0.0 0.0 0.0 0.0 0.0 0.0 0.0 0.0 0.0 0.0 0.0 0.0 0.0 0.0 0.0 0.0 0.0 0.0 0.0 0.0 0.0 0.0 0.0 0.0 0.0
0.7 0.3 0.2 0.5 0.4 0.4 0.0 0.0 0.0 0.2 0.2 0.2 0.0 0.0 0.0 0.0 0.0 0.0 0.0 0.0 0.0 0.0 0.0 0.0 0.0 0.0 0.0 0.0 0.0 0.0 0.0 0.0 0.0 0.0 0.0 0.0 0.0 0.0 0.0 0.0 0.0 0.0 0.0 0.0
0.6 0.5 0.4 0.3 0.1 0.2 0.0 0.0 0.0 0.3 0.2 0.1 0.0 0.0 0.0 0.0 0.0 0.0 0.0 0.0 0.0 0.0 0.0 0.0 0.0 0.0 0.0 0.0 0.0 0.0 0.0 0.0 0.0 0.0 0.0 0.0 0.0 0.0 0.0 0.0 0.0 0.0 0.0 0.0
0.7 0.8 0.3 0.4 0.1 0.1 0.1 0.0 0.0 0.2 0.2 0.1 0.1 0.0 0.0 0.0 0.0 0.0 0.0 0.0 0.0 0.0 0.0 0.0 0.0 0.0 0.0 0.0 0.0 0.0 0.0 0.0 0.0 0.0 0.0 0.0 0.0 0.0 0.0 0.0 0.0 0.0 0.0 0.0
0.2 0.0 0.0 0.0 0.1 0.4 0.5 0.3 0.2 0.1 0.0 0.0 0.0 0.0 0.0 0.0 0.0 0.0 0.0 0.0 0.0 0.0 0.0 0.0 0.0 0.0 0.0 0.0 0.0 0.0 0.0 0.0 0.0 0.0 0.0 0.0 0.0 0.0 0.0 0.0 0.0 0.0 0.0 0.0
0.1 0.2 0.1 0.1 0.0 0.0 0.0 0.0 0.0 0.0 0.0 0.0 0.0 0.0 0.0 0.0 0.0 0.0 0.0 0.0 0.0 0.0 0.0 0.0 0.0 0.0 0.0 0.0 0.0 0.0 0.0 0.0 0.0 0.0 0.0 0.0 0.0 0.0 0.0 0.0 0.0 0.0 0.0 0.0
0.0 0.0 0.0 0.0 0.0 0.0 0.0 0.0 0.0 0.0 0.0 0.0 0.0 0.0 0.0 0.0 0.0 0.0 0.0 0.0 0.0 0.0 0.0 0.0 0.0 0.0 0.0 0.0 0.0 0.0 0.0 0.0 0.0 0.0 0.0 0.0 0.0 0.0 0.0 0.0 0.0 0.0 0.0 0.0
0.0 0.0 0.0 0.0 0.0 0.0 0.0 0.0 0.0 0.0 0.0 0.0 0.0 0.0 0.0 0.0 0.0 0.0 0.0 0.0 0.0 0.0 0.0 0.0 0.0 0.0 0.0 0.0 0.0 0.0 0.0 0.0 0.0 0.0 0.0 0.0 0.0 0.0 0.0 0.0 0.0 0.0 0.0 0.0
0.0 0.0 0.0 0.0 0.0 0.0 0.0 0.0 0.0 0.0 0.0 0.0 0.0 0.0 0.0 0.0 0.0 0.0 0.0 0.0 0.0 0.0 0.0 0.0 0.0 0.0 0.0 0.0 0.0 0.0 0.0 0.0 0.0 0.0 0.0 0.0 0.0 0.0 0.1 0.1 0.1 0.1 0.0 0.0
0.0 0.0 0.0 0.0 0.0 0.0 0.0 0.0 0.0 0.0 0.0 0.0 0.0 0.0 0.0 0.0 0.0 0.0 0.0 0.0 0.0 0.0 0.0 0.0 0.0 0.0 0.0 0.0 0.0 0.0 0.0 0.0 0.0 0.0 0.0 0.0 0.0 0.0 0.0 0.0 0.0 0.0 0.0 0.0
0.0 0.0 0.0 0.0 0.0 0.0 0.0 0.0 0.0 0.0 0.0 0.0 0.0 0.0 0.0 0.0 0.1 0.0 0.0 0.0 0.0 0.0 0.0 0.0 0.0 0.0 0.0 0.0 0.1 0.0 0.0 0.0 0.0 0.1 0.0 0.0 0.0 0.1 0.0 0.0 0.0 0.0 0.0 0.0
0.0 0.0 0.0 0.0 0.0 0.0 0.0 0.0 0.0 0.0 0.0 0.0 0.0 0.0 0.0 0.0 0.0 0.0 0.0 0.0 0.0 0.0 0.0 0.0 0.0 0.0 0.0 0.0 0.0 0.0 0.0 0.0 0.0 0.0 0.0 0.0 0.0 0.0 0.0 0.0 0.0 0.0 0.0 0.0
0.0 0.0 0.0 0.0 0.0 0.0 0.0 0.0 0.0 0.0 0.0 0.0 0.0 0.0 0.0 0.0 0.0 0.0 0.0 0.0 0.0 0.0 0.0 0.1 0.0 0.0 0.0 0.0 0.0 0.0 0.0 0.0 0.0 0.0 0.1 0.0 0.0 0.0 0.0 0.0 0.0 0.0 0.0 0.0
0.0 0.0 0.0 0.0 0.0 0.0 0.0 0.0 0.0 0.0 0.0 0.0 0.0 0.1 0.0 0.2 0.1 0.0 0.0 0.1 0.1 0.1 0.1 0.1 0.2 0.2 0.3 0.2 0.1 0.0 0.0 0.1 0.1 0.1 0.0 0.0 0.0 0.0 0.0 0.0 0.0 0.0 0.0 0.0